BAW76 LIRN-LIRA

Flight info

Callsign BAW76
Flight time 0h 34m
Altitude 22000
Route SIPRO7J SIPRO DCT INSOX/N0392F210 DCT ALAXI ALAXI2F
Aircraft A319/M-SDE3FGIJ1KRWXY/LB1

Departure

Time 2026-05-05 14:07
Airport Naples International Airport (LIRN)

Arrival

Time 2026-05-05 14:41
Airport Ciampino–G. B. Pastine International Airport (LIRA)
Time Latitude Longitude Altitude Speed Heading
2026-05-05 13:35 40.87774 14.28011 303 ft 0 kts 141°
2026-05-05 13:56 40.87782 14.28002 303 ft 4 kts 141°
2026-05-05 13:56 40.87803 14.27980 305 ft 4 kts 141°
2026-05-05 13:56 40.87823 14.27955 308 ft 4 kts 124°
2026-05-05 13:56 40.87831 14.27927 306 ft 4 kts 71°
2026-05-05 13:57 40.87827 14.27915 307 ft 1 kts 37°
2026-05-05 14:00 40.87834 14.27923 306 ft 4 kts 39°
2026-05-05 14:01 40.87863 14.27963 305 ft 9 kts 50°
2026-05-05 14:01 40.87913 14.28043 303 ft 14 kts 50°
2026-05-05 14:01 40.87962 14.28155 298 ft 14 kts 86°
2026-05-05 14:01 40.87948 14.28307 293 ft 19 kts 96°
2026-05-05 14:02 40.87939 14.28443 294 ft 12 kts 79°
2026-05-05 14:02 40.88007 14.28540 288 ft 17 kts 50°
2026-05-05 14:02 40.88088 14.28679 285 ft 21 kts 52°
2026-05-05 14:02 40.88175 14.28829 280 ft 22 kts 53°
2026-05-05 14:03 40.88271 14.28998 275 ft 25 kts 53°
2026-05-05 14:03 40.88383 14.29191 267 ft 20 kts 52°
2026-05-05 14:03 40.88457 14.29319 261 ft 17 kts 52°
2026-05-05 14:03 40.88533 14.29450 256 ft 20 kts 52°
2026-05-05 14:04 40.88630 14.29617 251 ft 25 kts 53°
2026-05-05 14:04 40.88731 14.29792 245 ft 26 kts 52°
2026-05-05 14:04 40.88841 14.29981 241 ft 23 kts 53°
2026-05-05 14:04 40.88945 14.30162 235 ft 22 kts 53°
2026-05-05 14:05 40.89019 14.30290 230 ft 16 kts 52°
2026-05-05 14:05 40.89092 14.30415 224 ft 10 kts 50°
2026-05-05 14:05 40.89157 14.30449 223 ft 11 kts 353°
2026-05-05 14:05 40.89197 14.30421 225 ft 2 kts 324°
2026-05-05 14:06 40.89219 14.30400 225 ft 5 kts 321°
2026-05-05 14:06 40.89210 14.30362 224 ft 5 kts 234°
2026-05-05 14:06 40.89137 14.30214 230 ft 49 kts 237°
2026-05-05 14:06 40.88829 14.29577 252 ft 114 kts 238°
2026-05-05 14:07 40.88321 14.28484 392 ft 153 kts 238°
2026-05-05 14:07 40.87739 14.27353 1073 ft 149 kts 227°
2026-05-05 14:07 40.86858 14.26635 1635 ft 154 kts 193°
2026-05-05 14:07 40.85761 14.26660 2075 ft 168 kts 174°
2026-05-05 14:08 40.84533 14.26849 2453 ft 186 kts 175°
2026-05-05 14:08 40.83222 14.27025 3047 ft 191 kts 175°
2026-05-05 14:08 40.81894 14.27199 3690 ft 193 kts 175°
2026-05-05 14:08 40.80552 14.27373 4329 ft 195 kts 176°
2026-05-05 14:09 40.79193 14.27548 4963 ft 197 kts 176°
2026-05-05 14:09 40.77819 14.27728 5604 ft 200 kts 177°
2026-05-05 14:09 40.76427 14.27910 6236 ft 202 kts 177°
2026-05-05 14:09 40.75021 14.28096 6857 ft 204 kts 177°
2026-05-05 14:10 40.73600 14.28291 7476 ft 207 kts 175°
2026-05-05 14:10 40.72258 14.29034 8047 ft 218 kts 141°
2026-05-05 14:10 40.71504 14.30786 8520 ft 233 kts 102°
2026-05-05 14:10 40.71574 14.33025 8848 ft 253 kts 81°
2026-05-05 14:11 40.71905 14.35318 9633 ft 257 kts 78°
2026-05-05 14:11 40.72293 14.37636 10415 ft 261 kts 77°
2026-05-05 14:11 40.72891 14.39898 11140 ft 265 kts 56°
2026-05-05 14:11 40.74185 14.41599 11851 ft 265 kts 27°
2026-05-05 14:12 40.75961 14.42377 12237 ft 278 kts 358°
2026-05-05 14:12 40.77931 14.42073 12519 ft 296 kts 345°
2026-05-05 14:12 40.80033 14.41526 12757 ft 320 kts 345°
2026-05-05 14:12 40.82294 14.40933 12973 ft 343 kts 345°
2026-05-05 14:13 40.84681 14.40319 13470 ft 354 kts 346°
2026-05-05 14:13 40.87115 14.39711 14127 ft 358 kts 346°
2026-05-05 14:13 40.89579 14.39103 14802 ft 362 kts 346°
2026-05-05 14:13 40.92010 14.38257 15448 ft 362 kts 335°
2026-05-05 14:14 40.94239 14.36739 16087 ft 361 kts 323°
2026-05-05 14:14 40.96207 14.34682 16733 ft 361 kts 317°
2026-05-05 14:14 40.98134 14.32528 17351 ft 364 kts 317°
2026-05-05 14:14 41.00074 14.30356 17960 ft 367 kts 316°
2026-05-05 14:15 41.02028 14.28163 18565 ft 370 kts 316°
2026-05-05 14:15 41.03995 14.25953 19159 ft 373 kts 316°
2026-05-05 14:15 41.05980 14.23722 19763 ft 375 kts 316°
2026-05-05 14:15 41.07983 14.21482 20357 ft 378 kts 316°
2026-05-05 14:16 41.09999 14.19233 20939 ft 380 kts 316°
2026-05-05 14:16 41.12028 14.16962 21500 ft 383 kts 316°
2026-05-05 14:16 41.14069 14.14673 21979 ft 385 kts 316°
2026-05-05 14:16 41.16110 14.12374 22105 ft 384 kts 315°
2026-05-05 14:17 41.18132 14.10095 22140 ft 379 kts 315°
2026-05-05 14:17 41.20139 14.07831 22137 ft 378 kts 315°
2026-05-05 14:17 41.22141 14.05575 22130 ft 377 kts 315°
2026-05-05 14:17 41.24140 14.03320 22118 ft 377 kts 315°
2026-05-05 14:18 41.26136 14.01064 22106 ft 377 kts 315°
2026-05-05 14:18 41.28135 13.98802 22109 ft 377 kts 315°
2026-05-05 14:18 41.29980 13.96346 22112 ft 374 kts 306°
2026-05-05 14:18 41.31490 13.93562 22107 ft 371 kts 301°
2026-05-05 14:19 41.32946 13.90727 22108 ft 371 kts 301°
2026-05-05 14:19 41.34398 13.87897 22109 ft 370 kts 301°
2026-05-05 14:19 41.35851 13.85069 22106 ft 370 kts 301°
2026-05-05 14:19 41.37308 13.82241 22105 ft 370 kts 301°
2026-05-05 14:20 41.38770 13.79408 22100 ft 371 kts 301°
2026-05-05 14:20 41.40230 13.76576 22101 ft 371 kts 301°
2026-05-05 14:20 41.41685 13.73742 22103 ft 371 kts 301°
2026-05-05 14:20 41.43139 13.70901 22103 ft 371 kts 301°
2026-05-05 14:21 41.44687 13.68146 22106 ft 374 kts 308°
2026-05-05 14:21 41.46588 13.65754 22111 ft 377 kts 315°
2026-05-05 14:21 41.48584 13.63479 22109 ft 378 kts 315°
2026-05-05 14:21 41.50578 13.61200 22112 ft 377 kts 315°
2026-05-05 14:22 41.52571 13.58917 22115 ft 377 kts 315°
2026-05-05 14:22 41.54557 13.56634 22116 ft 377 kts 315°
2026-05-05 14:22 41.56544 13.54344 22114 ft 377 kts 315°
2026-05-05 14:22 41.58526 13.52051 22114 ft 377 kts 315°
2026-05-05 14:23 41.60509 13.49758 22115 ft 377 kts 315°
2026-05-05 14:23 41.62491 13.47467 22112 ft 377 kts 315°
2026-05-05 14:23 41.64476 13.45176 22111 ft 377 kts 315°
2026-05-05 14:23 41.66455 13.42889 22110 ft 376 kts 315°
2026-05-05 14:24 41.68429 13.40608 21890 ft 371 kts 315°
2026-05-05 14:24 41.70355 13.38386 21764 ft 359 kts 315°
2026-05-05 14:24 41.72214 13.36242 21641 ft 347 kts 315°
2026-05-05 14:24 41.73962 13.34099 21481 ft 333 kts 309°
2026-05-05 14:25 41.75520 13.31847 21056 ft 328 kts 308°
2026-05-05 14:25 41.77063 13.29611 20483 ft 326 kts 308°
2026-05-05 14:25 41.78598 13.27385 19885 ft 325 kts 309°
2026-05-05 14:25 41.80124 13.25179 19347 ft 322 kts 309°
2026-05-05 14:26 41.81642 13.22985 18840 ft 319 kts 309°
2026-05-05 14:26 41.83145 13.20811 18348 ft 316 kts 309°
2026-05-05 14:26 41.84609 13.18689 17882 ft 313 kts 309°
2026-05-05 14:26 41.86080 13.16553 17398 ft 311 kts 309°
2026-05-05 14:27 41.87550 13.14413 16918 ft 313 kts 309°
2026-05-05 14:27 41.89027 13.12263 16527 ft 312 kts 309°
2026-05-05 14:27 41.90493 13.10127 16044 ft 312 kts 309°
2026-05-05 14:27 41.91953 13.08005 15540 ft 309 kts 309°
2026-05-05 14:28 41.93403 13.05902 15054 ft 306 kts 309°
2026-05-05 14:28 41.94839 13.03814 14570 ft 303 kts 309°
2026-05-05 14:28 41.96266 13.01737 14121 ft 302 kts 309°
2026-05-05 14:28 41.97674 12.99682 13831 ft 297 kts 309°
2026-05-05 14:29 41.99067 12.97649 13282 ft 296 kts 309°
2026-05-05 14:29 42.00448 12.95632 12966 ft 285 kts 309°
2026-05-05 14:29 42.01756 12.93724 12708 ft 272 kts 308°
2026-05-05 14:29 42.02806 12.91676 12416 ft 263 kts 293°
2026-05-05 14:30 42.03428 12.89396 12172 ft 258 kts 281°
2026-05-05 14:30 42.03837 12.87045 11849 ft 259 kts 281°
2026-05-05 14:30 42.04251 12.84673 11436 ft 262 kts 281°
2026-05-05 14:30 42.04669 12.82289 11054 ft 263 kts 281°
2026-05-05 14:31 42.05087 12.79911 10786 ft 260 kts 281°
2026-05-05 14:31 42.05505 12.77545 10375 ft 260 kts 281°
2026-05-05 14:31 42.05919 12.75179 9957 ft 259 kts 281°
2026-05-05 14:31 42.06327 12.72852 9731 ft 251 kts 281°
2026-05-05 14:32 42.06724 12.70602 9584 ft 243 kts 281°
2026-05-05 14:32 42.07115 12.68384 9144 ft 244 kts 281°
2026-05-05 14:32 42.07505 12.66171 8729 ft 241 kts 281°
2026-05-05 14:32 42.07884 12.64007 8340 ft 234 kts 281°
2026-05-05 14:33 42.08250 12.61910 8090 ft 224 kts 281°
2026-05-05 14:33 42.08602 12.59886 8088 ft 221 kts 281°
2026-05-05 14:33 42.08953 12.57874 8097 ft 221 kts 281°
2026-05-05 14:33 42.09298 12.55862 8095 ft 221 kts 279°
2026-05-05 14:34 42.09273 12.53818 7785 ft 221 kts 251°
2026-05-05 14:34 42.08463 12.52081 7201 ft 223 kts 221°
2026-05-05 14:34 42.07105 12.51087 6612 ft 226 kts 200°
2026-05-05 14:34 42.05616 12.50366 6007 ft 229 kts 200°
2026-05-05 14:35 42.04620 12.49881 5602 ft 230 kts 200°
2026-05-05 14:35 42.03123 12.49146 5234 ft 222 kts 200°
2026-05-05 14:35 42.01715 12.48456 5042 ft 211 kts 200°
2026-05-05 14:35 42.00345 12.47782 4770 ft 209 kts 200°
2026-05-05 14:36 41.98958 12.47251 4404 ft 208 kts 186°
2026-05-05 14:36 41.97526 12.47412 3993 ft 208 kts 164°
2026-05-05 14:36 41.96229 12.48211 3738 ft 199 kts 153°
2026-05-05 14:36 41.95039 12.49038 3500 ft 186 kts 154°
2026-05-05 14:37 41.93911 12.49817 3222 ft 177 kts 153°
2026-05-05 14:37 41.92848 12.50554 2996 ft 168 kts 153°
2026-05-05 14:37 41.91824 12.51262 2783 ft 164 kts 154°
2026-05-05 14:37 41.90813 12.51962 2564 ft 163 kts 154°
2026-05-05 14:38 41.89808 12.52658 2344 ft 162 kts 154°
2026-05-05 14:38 41.88806 12.53351 2130 ft 162 kts 154°
2026-05-05 14:38 41.87833 12.54026 1909 ft 148 kts 154°
2026-05-05 14:38 41.86963 12.54628 1726 ft 135 kts 155°
2026-05-05 14:39 41.86145 12.55192 1555 ft 130 kts 155°
2026-05-05 14:39 41.85353 12.55740 1382 ft 127 kts 155°
2026-05-05 14:39 41.84572 12.56279 1220 ft 126 kts 155°
2026-05-05 14:39 41.83796 12.56816 1051 ft 125 kts 155°
2026-05-05 14:40 41.83022 12.57357 899 ft 126 kts 154°
2026-05-05 14:40 41.82243 12.57891 729 ft 126 kts 155°
2026-05-05 14:40 41.81462 12.58433 584 ft 127 kts 155°
2026-05-05 14:40 41.80684 12.58975 426 ft 125 kts 153°
2026-05-05 14:41 41.80043 12.59404 418 ft 67 kts 153°
2026-05-05 14:41 41.79814 12.59564 410 ft 30 kts 153°
2026-05-05 14:41 41.79685 12.59652 415 ft 12 kts 171°
2026-05-05 14:41 41.79632 12.59579 409 ft 6 kts 242°
2026-05-05 14:42 41.79625 12.59562 408 ft 5 kts 242°
2026-05-05 14:42 41.79583 12.59527 407 ft 6 kts 183°
2026-05-05 14:42 41.79575 12.59529 403 ft 0 kts 170°
2026-05-05 14:43 41.79562 12.59531 406 ft 3 kts 175°
2026-05-05 14:43 41.79533 12.59519 403 ft 6 kts 231°
2026-05-05 14:43 41.79502 12.59466 406 ft 9 kts 231°
2026-05-05 14:43 41.79468 12.59409 404 ft 6 kts 231°
2026-05-05 14:44 41.79425 12.59403 406 ft 8 kts 154°
2026-05-05 14:44 41.79375 12.59454 402 ft 10 kts 142°
2026-05-05 14:44 41.79324 12.59507 406 ft 7 kts 142°
2026-05-05 14:44 41.79279 12.59554 406 ft 9 kts 142°
2026-05-05 14:45 41.79269 12.59564 406 ft 0 kts 142°
2026-05-05 14:45 41.79269 12.59567 406 ft 1 kts 123°
2026-05-05 14:46 41.79278 12.59571 404 ft 2 kts 347°
2026-05-05 14:46 41.79300 12.59533 406 ft 6 kts 312°
2026-05-05 14:46 41.79332 12.59499 406 ft 0 kts 322°
2026-05-05 14:46 41.79339 12.59491 404 ft 2 kts 321°
2026-05-05 14:47 41.79339 12.59473 406 ft 2 kts 249°
2026-05-05 14:47 41.79329 12.59455 404 ft 2 kts 233°
2026-05-05 14:47 41.79322 12.59444 406 ft 1 kts 232°
2026-05-05 14:47 41.79318 12.59437 403 ft 0 kts 232°